Location: Mentone
(34.5413°N, 85.5351°W)
Time: 07:28:26
(UTC-05:00)

Tiros 1 despin weight - All Passes

Search period start: 01 November 2014 00:00
Search period end: 10 November 2014 23:00
Orbit: 600 x 652 km, 48.2° (Epoch: 31 October)

Date Brightness Start Highest point End Pass type
(mag) Time Alt. Az. Time Alt. Az. Time Alt. Az.
01 Nov - 04:02:36 10° SSW 04:06:57 37° SE 04:11:17 10° ENE visible
01 Nov - 05:44:13 10° W 05:48:41 40° NNW 05:53:07 10° NE visible
01 Nov - 07:28:23 10° NW 07:31:24 17° N 07:34:23 10° NNE daylight
01 Nov - 09:11:37 10° NNW 09:14:35 17° N 09:17:33 10° NE daylight
01 Nov - 10:52:56 10° NW 10:57:17 41° NNE 11:01:34 10° E daylight
01 Nov - 12:34:51 10° WNW 12:38:57 34° SW 12:42:59 10° SSE daylight
02 Nov - 01:43:03 10° SSE 01:44:47 12° SE 01:46:30 10° ESE night (unlit)
02 Nov - 03:21:13 10° SW 03:25:57 80° SE 03:30:40 10° NE visible
02 Nov - 05:04:10 10° WNW 05:08:06 25° NNW 05:12:00 10° NE visible
02 Nov - 06:48:27 10° NW 06:51:07 15° N 06:53:46 10° NNE daylight
02 Nov - 08:30:37 10° NNW 08:34:13 22° NNE 08:37:46 10° ENE daylight
02 Nov - 10:11:55 10° NW 10:16:31 80° NE 10:21:02 10° SE daylight
02 Nov - 11:55:10 10° W 11:57:45 15° SW 12:00:19 10° SSW daylight
03 Nov - 01:59:36 10° S 02:03:33 27° SE 02:07:30 10° ENE visible
03 Nov - 03:40:29 10° WSW 03:45:06 52° NNW 03:49:42 10° NE visible
03 Nov - 05:24:22 10° WNW 05:27:40 18° NNW 05:30:56 10° NNE visible
03 Nov - 07:08:02 10° NNW 07:10:51 16° N 07:13:38 10° NE daylight
03 Nov - 08:49:30 10° NW 08:53:42 33° NNE 08:57:49 10° E daylight
03 Nov - 10:31:09 10° WNW 10:35:33 48° SW 10:39:53 10° SSE daylight
04 Nov - 02:17:49 10° SW 02:22:28 58° SE 02:27:06 10° ENE visible
04 Nov - 04:00:15 10° W 04:04:26 31° NNW 04:08:36 10° NE visible
04 Nov - 05:44:33 10° NW 05:47:21 15° N 05:50:07 10° NNE daylight
04 Nov - 07:27:09 10° NNW 07:30:31 19° NNE 07:33:50 10° ENE daylight
04 Nov - 09:08:25 10° NW 09:13:00 59° NE 09:17:28 10° ESE daylight
04 Nov - 10:50:55 10° W 10:54:25 22° SW 10:57:51 10° S daylight
05 Nov - 00:56:49 10° S 01:00:09 19° SE 01:03:30 10° E night (unlit)
05 Nov - 02:36:49 10° WSW 02:41:32 69° NW 02:46:15 10° NE visible
05 Nov - 04:20:20 10° WNW 04:23:55 21° NNW 04:27:29 10° NNE visible
05 Nov - 06:04:20 10° NNW 06:07:04 15° N 06:09:46 10° NE daylight
05 Nov - 07:46:03 10° NW 07:50:03 27° NNE 07:53:58 10° E daylight
05 Nov - 09:27:30 10° WNW 09:32:06 68° SW 09:36:35 10° SE daylight
06 Nov - 01:14:33 10° SSW 01:18:59 41° SE 01:23:26 10° ENE night (unlit)
06 Nov - 02:56:21 10° W 03:00:46 38° NNW 03:05:10 10° NE visible
06 Nov - 04:40:33 10° NW 04:43:33 16° N 04:46:32 10° NNE visible
06 Nov - 06:23:37 10° NNW 06:26:45 17° NNE 06:29:51 10° NE daylight
06 Nov - 08:04:56 10° NW 08:09:24 45° NNE 08:13:47 10° ESE daylight
06 Nov - 09:46:58 10° WNW 09:51:00 31° SW 09:54:59 10° SSE daylight
06 Nov - 23:54:29 10° SSE 23:56:45 13° SE 23:59:02 10° E night (unlit)
07 Nov - 01:33:14 10° SW 01:37:57 88° SE 01:42:42 10° NE night (unlit)
07 Nov - 03:16:19 10° WNW 03:20:10 24° NNW 03:24:02 10° NE visible
07 Nov - 05:00:31 10° NW 05:03:14 15° N 05:05:56 10° NE visible
07 Nov - 06:42:34 10° NNW 06:46:19 23° NNE 06:50:01 10° ENE daylight
07 Nov - 08:23:54 10° NW 08:28:34 87° NE 08:33:08 10° SE daylight
07 Nov - 10:07:29 10° W 10:09:45 14° SW 10:12:01 10° SSW daylight
08 Nov - 00:11:25 10° SSW 00:15:30 30° SE 00:19:37 10° ENE night (unlit)
08 Nov - 01:52:32 10° WSW 01:57:06 48° NNW 02:01:41 10° NE night (unlit)
08 Nov - 03:36:29 10° WNW 03:39:44 18° NNW 03:42:58 10° NNE visible
08 Nov - 05:19:59 10° NNW 05:22:56 16° N 05:25:51 10° NE visible
08 Nov - 07:01:25 10° NW 07:05:45 36° NNE 07:09:59 10° E daylight
08 Nov - 08:43:09 10° WNW 08:47:33 43° SW 08:51:51 10° SSE daylight
09 Nov - 00:29:44 10° SW 00:34:23 65° SE 00:39:05 10° ENE night (unlit)
09 Nov - 02:12:18 10° W 02:16:25 29° NNW 02:20:33 10° NE visible
09 Nov - 03:56:35 10° NW 03:59:23 15° N 04:02:10 10° NNE visible
09 Nov - 05:39:02 10° NNW 05:42:32 20° NNE 05:46:00 10° ENE visible
09 Nov - 07:20:19 10° NW 07:24:59 65° NE 07:29:32 10° ESE daylight
09 Nov - 09:03:00 10° W 09:06:20 20° SW 09:09:38 10° S daylight
09 Nov - 23:08:29 10° S 23:12:01 21° SE 23:15:35 10° E night (unlit)
10 Nov - 00:48:46 10° WSW 00:53:27 63° NW 00:58:09 10° NE night (unlit)
10 Nov - 02:32:23 10° WNW 02:35:54 20° NNW 02:39:25 10° NNE visible
10 Nov - 04:16:15 10° NNW 04:19:04 15° N 04:21:51 10° NE visible
10 Nov - 05:57:54 10° NW 06:02:01 29° NNE 06:06:04 10° E daylight
10 Nov - 07:39:24 10° WNW 07:44:01 62° SW 07:48:32 10° SE daylight
